Fairacres, NM

12:35 AM MDT on August 29, 2016 (GMT -0600)
Las Cruces International

Weather History for KLRU - June, 2013

Change the Weather History Date:

Tuesday, June 4, 2013

  Actual Average Record
Temperature  
Mean Temperature 78 °F -  
Max Temperature 96 °F 90 °F 102 °F (2014)
Min Temperature 61 °F 61 °F 55 °F (2007)
Cooling Degree Days 14    
Growing Degree Days 28 (Base 50)    
Moisture  
Dew Point 23 °F    
Average Humidity 12    
Maximum Humidity 20    
Minimum Humidity 8    
Precipitation  
Precipitation 0.00 in - - ()
Sea Level Pressure  
Sea Level Pressure 29.99 in    
Wind  
Wind Speed 9 mph (West)    
Max Wind Speed 22 mph    
Max Gust Speed 30 mph    
Visibility 10 miles    
Events      
Averages and records for this station are not official NWS values.
T = Trace of Precipitation, MM = Missing Value Source: NWS Daily Summary

Daily Weather History Graph

Daily Weather History Graph

Search for Another Location

Airport or City:

Trip Planner

Search our weather history database for the weather conditions in past years. The results will help you decide how hot, cold, wet, or windy it might be!

Date:

Astronomy

Jun. 04, 2013 Rise Set
Actual Time 6:00 AM MDT 8:11 PM MDT
Civil Twilight 5:32 AM MDT 8:39 PM MDT
Nautical Twilight 4:58 AM MDT 9:13 PM MDT
Astronomical Twilight 4:21 AM MDT 9:50 PM MDT
Moon 3:21 AM MDT (6/4) 4:52 PM MDT (6/4)
Length of Visible Light 15h 06m
Length of Day
14h 10m
Waning Crescent, 14% of the Moon is Illuminated
Jun 4
Waning Crescent
Jun 8
New
Jun 16
First Quarter
Jun 23
Full
Jun 29
Last Quarter

Hourly Weather History & Observations

Time (MDT) Temp. Dew Point Humidity Pressure Visibility Wind Dir Wind Speed Gust Speed Precip Events Conditions
12:15 AM 75.9 °F 13.8 °F 9% 29.95 in 10.0 mi West 9.2 mph - N/A   Clear
12:35 AM 71.6 °F 13.1 °F 11% 29.95 in 10.0 mi West 11.5 mph - N/A   Clear
12:55 AM 69.1 °F 12.6 °F 11% 29.96 in 10.0 mi West 4.6 mph - N/A   Clear
1:15 AM 68.0 °F 12.7 °F 12% 29.96 in 10.0 mi West 8.1 mph - N/A   Clear
1:35 AM 67.6 °F 12.7 °F 12% 29.96 in 10.0 mi WSW 9.2 mph - N/A   Clear
1:55 AM 67.3 °F 12.7 °F 12% 29.96 in 10.0 mi WSW 10.4 mph - N/A   Clear
2:15 AM 66.4 °F 12.4 °F 12% 29.96 in 10.0 mi West 10.4 mph - N/A   Clear
2:35 AM 66.4 °F 12.6 °F 12% 29.96 in 10.0 mi West 9.2 mph - N/A   Clear
2:55 AM 65.1 °F 12.0 °F 13% 29.96 in 10.0 mi WNW 4.6 mph - N/A   Clear
3:15 AM 63.5 °F 11.7 °F 13% 29.96 in 10.0 mi NNW 8.1 mph - N/A   Clear
3:35 AM 65.8 °F 12.2 °F 12% 29.96 in 10.0 mi NW 6.9 mph - N/A   Clear
3:55 AM 62.2 °F 11.1 °F 13% 29.97 in 10.0 mi NW 3.5 mph - N/A   Clear
4:15 AM 66.2 °F 12.7 °F 13% 29.98 in 10.0 mi NNW 6.9 mph - N/A   Clear
4:35 AM 66.0 °F 13.3 °F 13% 29.98 in 10.0 mi NNE 4.6 mph - N/A   Clear
4:55 AM 63.0 °F 12.4 °F 14% 29.99 in 10.0 mi Calm Calm - N/A   Clear
5:15 AM 63.3 °F 12.9 °F 14% 29.99 in 10.0 mi NNW 3.5 mph - N/A   Clear
5:35 AM 61.7 °F 12.4 °F 15% 29.99 in 10.0 mi North 3.5 mph - N/A   Clear
5:55 AM 62.2 °F 12.9 °F 15% 29.99 in 10.0 mi NNW 5.8 mph - N/A   Clear
6:15 AM 62.8 °F 12.6 °F 14% 30.00 in 10.0 mi WNW 6.9 mph - N/A   Clear
6:35 AM 61.0 °F 12.0 °F 15% 30.01 in 10.0 mi West 8.1 mph - N/A   Clear
6:55 AM 63.7 °F 12.6 °F 14% 30.02 in 10.0 mi WNW 6.9 mph - N/A   Clear
7:15 AM 68.7 °F 14.7 °F 13% 30.02 in 10.0 mi North 3.5 mph - N/A   Clear
7:35 AM 74.1 °F 16.0 °F 11% 30.03 in 10.0 mi ENE 3.5 mph - N/A   Clear
7:55 AM 76.1 °F 16.3 °F 10% 30.03 in 10.0 mi Calm Calm - N/A   Clear
8:15 AM 76.5 °F 16.5 °F 10% 30.04 in 10.0 mi Calm Calm - N/A   Clear
8:35 AM 79.0 °F 16.9 °F 10% 30.04 in 10.0 mi Calm Calm - N/A   Clear
8:55 AM 80.4 °F 17.6 °F 10% 30.05 in 10.0 mi WSW 4.6 mph - N/A   Clear
9:15 AM 82.4 °F 18.0 °F 9% 30.06 in 10.0 mi SW 5.8 mph - N/A   Clear
9:35 AM 82.8 °F 19.0 °F 9% 30.06 in 10.0 mi WSW 6.9 mph - N/A   Clear
9:55 AM 83.8 °F 19.0 °F 9% 30.06 in 10.0 mi SW 4.6 mph - N/A   Clear
10:15 AM 86.0 °F 19.4 °F 9% 30.06 in 10.0 mi SSW 5.8 mph - N/A   Clear
10:35 AM 87.3 °F 20.1 °F 9% 30.06 in 10.0 mi WSW 4.6 mph - N/A   Clear
10:55 AM 88.5 °F 20.1 °F 8% 30.06 in 10.0 mi SSW 6.9 mph - N/A   Clear
11:15 AM 88.7 °F 21.6 °F 9% 30.05 in 10.0 mi SW 3.5 mph - N/A   Clear
11:35 AM 90.7 °F 24.8 °F 9% 30.05 in 10.0 mi SW 13.8 mph 18.4 mph N/A   Clear
11:55 AM 91.6 °F 26.2 °F 10% 30.04 in 10.0 mi SW 13.8 mph 25.3 mph N/A   Clear
12:15 PM 92.7 °F 25.7 °F 9% 30.03 in 10.0 mi WSW 11.5 mph 19.6 mph N/A   Clear
12:35 PM 92.7 °F 26.2 °F 9% 30.03 in 10.0 mi SW 11.5 mph 23.0 mph N/A   Clear
12:55 PM 93.6 °F 29.1 °F 10% 30.02 in 10.0 mi West 17.3 mph 26.5 mph N/A   Clear
1:15 PM 93.6 °F 27.3 °F 9% 30.01 in 10.0 mi WSW 11.5 mph 21.9 mph N/A   Clear
1:35 PM 93.9 °F 29.5 °F 10% 30.01 in 10.0 mi SW 18.4 mph 26.5 mph N/A   Clear
1:55 PM 95.4 °F 27.5 °F 9% 30.00 in 10.0 mi West 10.4 mph 21.9 mph N/A   Clear
2:15 PM 95.2 °F 27.5 °F 9% 29.99 in 10.0 mi WSW 17.3 mph 25.3 mph N/A   Clear
2:35 PM 95.9 °F 28.2 °F 9% 29.99 in 10.0 mi West 17.3 mph 29.9 mph N/A   Clear
2:55 PM 95.4 °F 27.7 °F 9% 29.97 in 10.0 mi SSW 8.1 mph 21.9 mph N/A   Clear
3:15 PM 94.8 °F 27.5 °F 9% 29.97 in 10.0 mi West 20.7 mph 28.8 mph N/A   Clear
3:35 PM 93.6 °F 27.3 °F 9% 29.96 in 10.0 mi WNW 9.2 mph - N/A   Clear
3:55 PM 96.3 °F 28.2 °F 9% 29.96 in 10.0 mi WSW 18.4 mph 26.5 mph N/A   Clear
4:15 PM 94.3 °F 28.0 °F 9% 29.95 in 10.0 mi WSW 12.7 mph 19.6 mph N/A   Clear
4:35 PM 95.7 °F 29.5 °F 10% 29.95 in 10.0 mi West 16.1 mph 23.0 mph N/A   Clear
4:55 PM 96.1 °F 30.0 °F 10% 29.94 in 10.0 mi WSW 18.4 mph 24.2 mph N/A   Clear
5:15 PM 94.1 °F 29.7 °F 10% 29.94 in 10.0 mi West 13.8 mph 20.7 mph N/A   Clear
5:35 PM 94.8 °F 31.1 °F 10% 29.93 in 10.0 mi SSW 9.2 mph - N/A   Clear
5:55 PM 95.2 °F 31.1 °F 10% 29.93 in 10.0 mi West 17.3 mph - N/A   Clear
6:15 PM 94.3 °F 31.5 °F 11% 29.92 in 10.0 mi West 21.9 mph 28.8 mph N/A   Clear
6:35 PM 93.4 °F 31.6 °F 11% 29.92 in 10.0 mi West 12.7 mph 26.5 mph N/A   Clear
6:55 PM 93.7 °F 31.6 °F 11% 29.92 in 10.0 mi SW 17.3 mph 24.2 mph N/A   Clear
7:15 PM 92.3 °F 31.6 °F 12% 29.93 in 10.0 mi WSW 17.3 mph 21.9 mph N/A   Clear
7:35 PM 91.9 °F 31.5 °F 12% 29.93 in 10.0 mi WSW 12.7 mph - N/A   Clear
7:55 PM 90.9 °F 31.1 °F 12% 29.94 in 10.0 mi West 16.1 mph 23.0 mph N/A   Clear
8:15 PM 89.1 °F 31.8 °F 13% 29.95 in 10.0 mi WSW 21.9 mph 25.3 mph N/A   Clear
8:35 PM 87.3 °F 30.6 °F 13% 29.95 in 1.8 mi WSW 18.4 mph 27.6 mph N/A   Haze
8:55 PM 86.0 °F 30.9 °F 14% 29.96 in 4.0 mi West 15.0 mph - N/A   Haze
9:15 PM 85.1 °F 31.1 °F 14% 29.96 in 7.0 mi West 12.7 mph - N/A   Clear
9:35 PM 83.7 °F 31.1 °F 15% 29.96 in 10.0 mi West 10.4 mph - N/A   Clear
9:55 PM 82.2 °F 30.6 °F 15% 29.97 in 10.0 mi West 10.4 mph - N/A   Clear
10:15 PM 81.5 °F 30.6 °F 16% 29.98 in 10.0 mi WSW 9.2 mph - N/A   Clear
10:35 PM 79.5 °F 30.6 °F 17% 29.98 in 10.0 mi WSW 9.2 mph - N/A   Clear
10:55 PM 79.3 °F 31.1 °F 17% 29.98 in 10.0 mi West 10.4 mph - N/A   Clear
11:15 PM 78.1 °F 31.1 °F 18% 29.98 in 10.0 mi West 9.2 mph - N/A   Clear
11:35 PM 76.6 °F 31.1 °F 19% 29.98 in 10.0 mi West 9.2 mph - N/A   Clear
11:55 PM 75.7 °F 31.5 °F 20% 29.98 in 10.0 mi West 10.4 mph - N/A   Clear